JF1AJE-13 Weather Reports


time (UTC)temp
C
wind
direction
speed
KPH
gust
KPH
rain 1hr
cm
rain 24hr
cm
rain mn
cm
humidity
%
barometer
mb
20260509210552 12 4 0.0 0.0 0.00 0.00 0.00 59 1015.8
20260509204553 11 5 0.0 0.0 0.00 0.00 0.00 62 1015.8
20260509202554 10 5 0.0 0.0 0.00 0.00 0.00 61 1015.4
20260509200552 10 5 0.0 0.0 0.00 0.00 0.00 61 1015.2
20260509194551 11 5 0.0 0.0 0.00 0.00 0.00 59 1015.0
20260509192552 11 5 0.0 0.0 0.00 0.00 0.00 58 1014.6
20260509190553 11 5 0.0 0.0 0.00 0.00 0.00 57 1014.4
20260509184550 11 5 0.0 0.0 0.00 0.00 0.00 57 1014.3
20260509182553 11 5 0.0 0.0 0.00 0.00 0.00 57 1014.1
20260509180552 11 5 0.0 0.0 0.00 0.00 0.00 57 1013.9
20260509174550 11 5 0.0 0.0 0.00 0.00 0.00 55 1013.7
20260509172553 11 5 0.0 0.0 0.00 0.00 0.00 54 1013.4
20260509170553 11 5 0.0 0.0 0.00 0.00 0.00 53 1013.3
20260509164552 11 5 0.0 0.0 0.00 0.00 0.00 52 1013.4
20260509162552 12 5 0.0 0.0 0.00 0.00 0.00 50 1013.3
20260509160551 12 5 0.0 0.0 0.00 0.00 0.00 49 1013.2
20260509154552 12 5 0.0 0.0 0.00 0.00 0.00 47 1013.2
20260509152551 13 5 0.0 0.0 0.00 0.00 0.00 45 1013.2
20260509150552 13 5 0.0 0.0 0.00 0.00 0.00 44 1013.2
20260509144554 13 5 0.0 0.0 0.00 0.00 0.00 42 1013.1
20260509142550 13 5 0.0 0.0 0.00 0.00 0.00 40 1012.7
20260509140555 14 5 0.0 0.0 0.00 0.00 0.00 39 1012.6
20260509134552 14 5 0.0 0.0 0.00 0.00 0.00 38 1012.5
20260509132551 15 8 0.0 0.0 0.00 0.00 0.00 34 1012.4
20260509130551 15 38 0.0 0.0 0.00 0.00 0.00 31 1012.1
20260509124557 16 38 0.0 0.0 0.00 0.00 0.00 28 1012.0
20260509122551 16 38 0.0 0.0 0.00 0.00 0.00 27 1012.0
20260509120550 16 39 0.0 0.0 0.00 0.00 0.00 25 1012.0
20260509114550 17 41 0.0 0.0 0.00 0.00 0.00 25 1011.8
20260509112550 17 39 0.0 0.0 0.00 0.00 0.00 24 1011.4
20260509110553 17 39 0.0 0.0 0.00 0.00 0.00 24 1011.1
20260509104551 18 39 0.0 0.0 0.00 0.00 0.00 22 1011.0
20260509102552 18 1 0.0 0.0 0.00 0.00 0.00 21 1010.4
20260509100551 18 8 0.0 0.0 0.00 0.00 0.00 21 1010.0
20260509094553 19 21 0.0 0.0 0.00 0.00 0.00 20 1009.9
20260509092554 19 59 0.0 0.0 0.00 0.00 0.00 20 1009.4
20260509090552 20 322 0.0 0.0 0.00 0.00 0.00 19 1009.1
20260509084554 21 39 0.0 0.0 0.00 0.00 0.00 19 1008.8
20260509082552 21 42 0.0 0.0 0.00 0.00 0.00 18 1008.2
20260509080604 22 39 0.0 0.0 0.00 0.00 0.00 18 1007.9
20260509074552 22 39 0.0 0.0 0.00 0.00 0.00 19 1007.7
20260509072551 22 8 0.0 0.0 0.00 0.00 0.00 20 1006.8
20260509070552 23 337 0.0 0.0 0.00 0.00 0.00 19 1006.4
20260509064551 23 327 0.0 0.0 0.00 0.00 0.00 19 1006.2
20260509062552 23 334 0.0 0.0 0.00 0.00 0.00 18 1006.3
20260509060551 23 323 0.0 0.0 0.00 0.00 0.00 18 1006.1
20260509054600 23 343 0.0 0.0 0.00 0.00 0.00 19 1006.0
20260509052552 23 29 0.0 0.0 0.00 0.00 0.00 21 1006.0
20260509050552 23 348 0.0 0.0 0.00 0.00 0.00 21 1006.1
20260509044552 23 11 0.0 0.0 0.00 0.00 0.00 21 1006.0
20260509042552 23 14 0.0 0.0 0.00 0.00 0.00 22 1005.9
20260509040552 22 22 0.0 0.0 0.00 0.00 0.00 23 1006.2
20260509034551 22 320 0.0 0.0 0.00 0.00 0.00 24 1006.3
20260509032552 22 39 0.0 0.0 0.00 0.00 0.00 26 1006.1
20260509030552 22 18 0.0 0.0 0.00 0.00 0.00 20 1006.2
20260509024551 22 56 0.0 0.0 0.00 0.00 0.00 22 1006.2
20260509022553 21 302 0.0 0.0 0.00 0.00 0.00 22 1006.0
20260509020551 21 310 0.0 0.0 0.00 0.00 0.00 23 1006.3
20260509014552 21 350 0.0 0.0 0.00 0.00 0.00 24 1006.2
20260509012552 21 302 0.0 0.0 0.00 0.00 0.00 23 1006.1
20260509010552 21 323 0.0 0.0 0.00 0.00 0.00 23 1005.9
20260509004551 21 31 0.0 0.0 0.00 0.00 0.00 23 1005.7
20260509002552 21 275 0.0 0.0 0.00 0.00 0.00 23 1005.2
20260509000552 20 43 0.0 0.0 0.00 0.00 0.00 26 1005.2
20260508234553 20 350 0.0 0.0 0.00 0.00 0.00 24 1005.2
20260508232551 20 29 0.0 0.0 0.00 0.00 0.00 24 1004.6
20260508230551 20 340 0.0 0.0 0.00 0.00 0.00 24 1004.5
20260508224552 18 319 0.0 0.0 0.00 0.00 0.00 26 1004.3
20260508220551 18 26 0.0 0.0 0.00 0.00 0.00 27 1003.6
20260508214552 17 26 0.0 0.0 0.00 0.00 0.00 31 1003.2
20260508212553 15 337 0.0 0.0 0.00 0.00 0.00 42 1002.9